FENGYUN 1C DEB

Satellite information

Favourite Embed

Satellite Type and Status

DEBRISIN ORBIT

Key statistics

Satellite FENGYUN 1C DEB at a glance.

Uptime

9658

Days in orbit

Revolutions

≈ 14.2

Per day

Orbit

SSO

Sun Synchronous Orbit

Inclination

98.9

Latest

Satellite identification and parameters

Extended collection of information and parameters for FENGYUN 1C DEB.

Object identification

Identified? True

Debris? True

Object name: FENGYUN 1C DEB

International designator: 1999-025AHT

Object number (NORAD): 30505

Object ID (CCSDS): 30505

Country: PEOPLES REPUBLIC OF CHINA (PRC)

Current information (Y/N): Y

RCS size: SMALL

Orbital parameters

Period: 101.304 minutes

Inclination: 98.9291 deg

SMA: 7198.552 km

Apoapsis: 865.36 km

Periapsis: 775.474 km

RAAN: 9.7242 deg

Eccentricy: 0.00624333

Argument of periapsis: 46.0892 deg

Mean anomaly: 106.764 deg

Mean motion: 14.21461292 rev/day

Mean motion (dot): 0.00004584 rev/day2

B* drag term: 0.0020741732 1/REarth

Two-line elements (TLE)

Creation date: Oct. 18, 2025, 2:17 a.m.

Reference frame: TEME

Reference center: EARTH

Epoch: Oct. 17, 2025, 5:10 p.m. UTC

TLE line 0: 0 FENGYUN 1C DEB

TLE line 1: 1 30505U 99025AHT 25290.71530248 .00004584 00000-0 20742-2 0 9994

TLE line 2: 2 30505 98.9291 9.7242 0062433 46.0892 106.7640 14.21461292961275

Live tracking on map

Real-time ground track for satellite FENGYUN 1C DEB.

In-orbit conjunctions

A list of the most updated potential collisions computed for object FENGYUN 1C DEB.

Target Orbit TCA Probability of collision Miss distance Type
FENGYUN 1C DEB SSO 2025-10-13 21:39:13 0.0002151071 334.0 (m) DEBRIS
FENGYUN 1C DEB SSO 2025-09-14 00:25:48 0.0002056159 202.0 (m) DEBRIS
CZ-6A DEB LEO 2025-03-15 05:33:41 0.0002578144 107.0 (m) DEBRIS

Associated space launch

Chinese polar orbiting meteorological satellite

FENGYUN 1C DEB was lifted into orbit during the mission ‘Long March 4B | Feng Yun 1C’, on board a Long March 4B space rocket.

The launch took place on May 10, 1999, 1:33 a.m. from Launch Complex 7.

For more information about the launch, click the button.

Launch to space Long March 4B | Feng Yun 1C
Long March 4B | Feng Yun 1C

Agency: N/A

Status: Launch Successful

Launch date: May 10, 1999, 1:33 a.m. UTC

Rocket: Long March 4B

Launch pad: Launch Complex 7

Location: Taiyuan Satellite Launch Center, People's Republic of China

...

Latest news about this satellite

There are no fresh news available about this satellite. Check back as we update our databases every day.


Newsletter sign-up

Weekly statistics, charts and insights to help you stay on top of the space industry.